Regional Weather Roundup
Issued by NWS Bismarck, ND

Home | Current Version | Previous Version | Text Only | Print | Product List | Glossary On
Versions: 1 2 3 4 5 6 7 8 9 10 11 12 13 14 15 16 17 18 19 20 21 22 23 24 25 26 27 28 29 30 31 32 33 34 35 36 37 38 39 40 41 42 43 44 45 46 47 48 49 50
000
ASUS43 KBIS 171420
RWRBIS

NWR BROADCAST TEXT
NATIONAL WEATHER SERVICE BISMARCK ND
900 AM CDT WED SEP 17 2014

NOTE: "FAIR" INDICATES FEW OR NO CLOUDS BELOW 12,000 FEET WITH NO
SIGNIFICANT WEATHER AND/OR OBSTRUCTIONS TO VISIBILITY.


CITY           SKY/WX    TMP DP  RH WIND       PRES   REMARKS
WILLISTON      MOSUNNY   47  39  74 CALM      29.96S HAZE
MINOT          SUNNY     50  43  77 NE3       29.97R
MINOT AFB      SUNNY     49  46  91 SE7       29.96S
BISMARCK       SUNNY     48  43  82 CALM      29.97R
DICKINSON      PTSUNNY   49  45  86 CALM      29.95S
GARRISON         N/A     50  46  86 CALM      29.96R
HETTINGER ARPT MOSUNNY   45  42  89 CALM      29.98R
JAMESTOWN      SUNNY     52  47  83 N6        29.95R
BEACH            N/A     50  50 100 S3        29.97S
CARRINGTON     FAIR      52  50  93 NW5       29.97F
CROSBY         FAIR      50  43  76 E8        29.98R
HARVEY         FAIR      52  46  82 NE7       29.97R
HAZEN          FAIR      45  41  87 CALM      29.98S
LINTON         FAIR      50  50 100 N3        29.96S
MANDAN         FAIR      54  46  76 CALM      29.98R
OAKES            N/A     52  52 100 NW6       29.95R
RUGBY          FAIR      48  46  93 E13       29.98R
STANLEY        FAIR      48  46  93 CALM      29.96F
TIOGA          FAIR      45  45 100 CALM      29.99F
WATFORD CITY   FAIR      45  39  81 CALM      29.95S
$$

CITY           SKY/WX    TMP DP  RH WIND       PRES   REMARKS
GRAND FORKS    MOSUNNY   50  46  86 N12       29.96R
GRAND FORKS AF SUNNY     50  49  99 N10       29.97R
DEVILS LAKE    SUNNY     50  43  76 NE10      29.96S
FARGO          SUNNY     53  48  83 N5        29.93S
CANDO          CLOUDY    45  41  87 NE9       30.00R
CAVALIER       FOG       46  46 100 N12       30.01R VSB 1/4
GRAFTON        PTSUNNY   46  46 100 N15G21    29.99R
GWINNER        SUNNY     55  50  82 N5        29.96R
LANGDON        FOG       46  45  93 NE12      30.00R VSB 1/4
ROLLA          CLOUDY    45  45 100 NE13      30.03R
WALHALLA         N/A     45  45 100 N14       30.02R
$$

CITY           SKY/WX    TMP DP  RH WIND       PRES   REMARKS
ABERDEEN       FOG       47  47 100 CALM      29.95R VSB 1
MOBRIDGE       SUNNY     55  51  86 N3        29.93R
BUFFALO          N/A     53  47  79 NE8       29.90S
RAPID CITY     SUNNY     61  42  49 NW8       29.97R
GLASGOW        PTSUNNY   53  41  63 E12       29.90R
SIDNEY         PTSUNNY   50  43  76 CALM      29.96S
WOLF POINT     CLOUDY    46  39  76 E6        29.93S
GLENDIVE       MOSUNNY   50  45  81 N6        29.96
MILES CITY     PTSUNNY   51  47  86 N8        29.92R
BAKER          PTSUNNY   52  49  89 E8        29.96S
$$

CITY           SKY/WX    TMP DP  RH WIND       PRES   REMARKS
BILLINGS       MOSUNNY   61  46  57 SW14      29.94R
GREAT FALLS    PTCLDY    56  46  69 S9        29.90S
REGINA         CLOUDY    46  45  93 E14       29.97R
ESTEVAN        PTSUNNY   46  43  87 E8        29.99R
$$




USA.gov is the U.S. government's official web portal to all federal, state and local government web resources and services.